Weather History for Osceola, WI

Change the Weather History Date:

Thursday, November 24, 2011

  Actual Average (KMSP) Record (KMSP)
Temperature  
Mean Temperature 44 °F 29 °F  
Max Temperature 53 °F 36 °F 59 °F (1990)
Min Temperature 35 °F 22 °F -10 °F (1893)
Degree Days  
Heating Degree Days 21 36  
Month to date heating degree days 711  
Since 1 July heating degree days 1391  
Cooling Degree Days 0 0  
Month to date cooling degree days 0  
Year to date cooling degree days 753  
Moisture  
Dew Point 38 °F    
Average Humidity 82    
Maximum Humidity 100    
Minimum Humidity 62    
Precipitation  
Precipitation 0.00 in 0.06 in 1.06 in (2001)
Month to date precipitation 1.45  
Year to date precipitation 29.13  
Snow  
Snow 0.00 in 0.40 in 1.70 in (1977)
Month to date snowfall 6.7  
Since 1 July snowfall 7.3  
Since 1 September snowfall 7.3  
Snow Depth -    
Sea Level Pressure  
Sea Level Pressure 29.87 in    
Wind  
Wind Speed 10 mph (SSE)    
Max Wind Speed 17 mph    
Max Gust Speed 24 mph    
Visibility 8 miles    
Events      
T = Trace of Precipitation, MM = Missing Value Source: NWS Daily Summary

Daily Weather History Graph

Daily Weather History Graph

Search for Another Location

Airport:

Trip Planner

Search our weather history database for the weather conditions in past years. The results will help you decide how hot, cold, wet, or windy it might be!

Date:

Astronomy

Nov. 24, 2011 Rise Set
Actual Time 7:20 AM CST 4:33 PM CST
Civil Twilight 6:48 AM CST 5:06 PM CST
Nautical Twilight 6:11 AM CST 5:42 PM CST
Astronomical Twilight 5:36 AM CST 6:17 PM CST
Moon 6:40 AM CST (11/24) 4:03 PM CST (11/24)
Length of Visible Light 10h 18m
Length of Day
9h 12m
Waning Crescent, 0% of the Moon is Illuminated
Nov 24
Waning Crescent
Nov 25
New
Dec 2
First Quarter
Dec 10
Full
Dec 17
Last Quarter

Hourly Weather History & Observations

Time (CST) Temp. Windchill Dew Point Humidity Pressure Visibility Wind Dir Wind Speed Gust Speed Precip Events Conditions
12:15 AM 39.2 °F 31.6 °F 35.6 °F 87% 30.01 in 5.0 mi South 12.7 mph 16.1 mph N/A   Clear
12:35 AM 39.2 °F 32.0 °F 35.6 °F 87% 30.01 in 5.0 mi South 11.5 mph - N/A   Clear
12:55 AM 37.4 °F 30.3 °F 35.6 °F 93% 30.01 in 5.0 mi South 10.4 mph 17.3 mph N/A   Clear
1:15 AM 37.4 °F 31.4 °F 35.6 °F 93% 30.00 in 5.0 mi South 8.1 mph - N/A   Clear
1:35 AM 37.4 °F 30.3 °F 35.6 °F 93% 29.99 in 5.0 mi South 10.4 mph - N/A   Clear
1:55 AM 37.4 °F 30.3 °F 35.6 °F 93% 29.99 in 5.0 mi SSE 10.4 mph - N/A   Clear
2:15 AM 35.6 °F 29.2 °F 33.8 °F 93% 29.99 in 4.0 mi SSE 8.1 mph - N/A   Clear
2:35 AM 35.6 °F 28.6 °F 33.8 °F 93% 29.99 in 4.0 mi SSE 9.2 mph - N/A   Clear
3:15 AM 35.6 °F 29.2 °F 33.8 °F 93% 29.98 in 4.0 mi SSE 8.1 mph - N/A   Clear
3:35 AM 35.6 °F 29.2 °F 33.8 °F 93% 29.97 in 4.0 mi SSE 8.1 mph - N/A   Clear
4:15 AM 35.6 °F 28.6 °F 35.6 °F 100% 29.96 in 5.0 mi South 9.2 mph - N/A   Clear
4:35 AM 35.6 °F 28.6 °F 35.6 °F 100% 29.95 in 4.0 mi SSE 9.2 mph - N/A   Clear
4:55 AM 35.6 °F 28.6 °F 35.6 °F 100% 29.94 in 4.0 mi SSE 9.2 mph - N/A   Clear
5:15 AM 35.6 °F 29.2 °F 35.6 °F 100% 29.94 in 4.0 mi SSE 8.1 mph - N/A   Clear
5:35 AM 35.6 °F 29.2 °F 35.6 °F 100% 29.94 in 4.0 mi SSE 8.1 mph - N/A   Clear
5:55 AM 35.6 °F 28.6 °F 35.6 °F 100% 29.93 in 5.0 mi SSE 9.2 mph - N/A   Clear
6:15 AM 37.4 °F 30.8 °F 35.6 °F 93% 29.93 in 5.0 mi SSE 9.2 mph - N/A   Clear
6:35 AM 37.4 °F 30.8 °F 35.6 °F 93% 29.93 in 5.0 mi SSE 9.2 mph - N/A   Clear
6:55 AM 37.4 °F 32.8 °F 35.6 °F 93% 29.92 in 5.0 mi SSE 5.8 mph - N/A   Clear
7:15 AM 37.4 °F 31.4 °F 33.8 °F 87% 29.92 in 5.0 mi SSE 8.1 mph - N/A   Clear
7:35 AM 37.4 °F 30.3 °F 35.6 °F 93% 29.92 in 5.0 mi SSE 10.4 mph - N/A   Clear
7:55 AM 37.4 °F 29.3 °F 35.6 °F 93% 29.91 in 5.0 mi SSE 12.7 mph 18.4 mph N/A   Clear
8:15 AM 39.2 °F 32.5 °F 35.6 °F 87% 29.91 in 5.0 mi South 10.4 mph - N/A   Clear
8:35 AM 41.0 °F 33.9 °F 35.6 °F 81% 29.90 in 7.0 mi South 12.7 mph 18.4 mph N/A   Clear
8:55 AM 41.0 °F 33.5 °F 37.4 °F 87% 29.90 in 7.0 mi South 13.8 mph 18.4 mph N/A   Clear
9:15 AM 42.8 °F 37.0 °F 37.4 °F 81% 29.90 in 7.0 mi South 10.4 mph 17.3 mph N/A   Clear
9:35 AM 44.6 °F 38.8 °F 37.4 °F 76% 29.89 in 10.0 mi South 11.5 mph 18.4 mph N/A   Clear
9:55 AM 44.6 °F 38.4 °F 37.4 °F 76% 29.89 in 10.0 mi South 12.7 mph 18.4 mph N/A   Clear
10:35 AM 48.2 °F - 39.2 °F 71% 29.87 in 10.0 mi South 15.0 mph 19.6 mph N/A   Clear
10:55 AM 48.2 °F - 39.2 °F 71% 29.87 in 10.0 mi South 13.8 mph 19.6 mph N/A   Clear
11:15 AM 50.0 °F - 41.0 °F 71% 29.86 in 10.0 mi South 11.5 mph 21.9 mph N/A   Clear
11:35 AM 51.8 °F - 41.0 °F 67% 29.85 in 10.0 mi South 17.3 mph - N/A   Clear
11:55 AM 51.8 °F - 41.0 °F 67% 29.84 in 10.0 mi South 12.7 mph - N/A   Clear
12:15 PM 53.6 °F - 41.0 °F 62% 29.82 in 10.0 mi South 13.8 mph 19.6 mph N/A   Clear
12:35 PM 51.8 °F - 41.0 °F 67% 29.82 in 10.0 mi South 12.7 mph 24.2 mph N/A   Clear
12:55 PM 53.6 °F - 41.0 °F 62% 29.81 in 10.0 mi South 13.8 mph 18.4 mph N/A   Clear
1:15 PM 53.6 °F - 41.0 °F 62% 29.80 in 10.0 mi South 11.5 mph 18.4 mph N/A   Clear
1:55 PM 53.6 °F - 41.0 °F 62% 29.79 in 10.0 mi South 11.5 mph - N/A   Clear
2:15 PM 53.6 °F - 42.8 °F 67% 29.79 in 10.0 mi South 12.7 mph 16.1 mph N/A   Clear
2:35 PM 53.6 °F - 42.8 °F 67% 29.78 in 10.0 mi South 10.4 mph - N/A   Clear
2:55 PM 53.6 °F - 42.8 °F 67% 29.78 in 10.0 mi South 10.4 mph - N/A   Clear
3:35 PM 53.6 °F - 42.8 °F 67% 29.79 in 10.0 mi South 8.1 mph - N/A   Clear
3:55 PM 53.6 °F - 42.8 °F 67% 29.79 in 10.0 mi South 5.8 mph - N/A   Clear
4:15 PM 51.8 °F - 41.0 °F 67% 29.79 in 10.0 mi South 4.6 mph - N/A   Clear
4:35 PM 48.2 °F - 41.0 °F 76% 29.78 in 10.0 mi SSE 4.6 mph - N/A   Clear
4:55 PM 44.6 °F 42.2 °F 39.2 °F 81% 29.78 in 10.0 mi SE 4.6 mph - N/A   Clear
5:15 PM 46.4 °F 45.2 °F 41.0 °F 81% 29.78 in 10.0 mi SE 3.5 mph - N/A   Clear
5:35 PM 44.6 °F 43.1 °F 39.2 °F 81% 29.78 in 10.0 mi SE 3.5 mph - N/A   Clear
6:15 PM 44.6 °F 42.2 °F 41.0 °F 87% 29.76 in 10.0 mi SE 4.6 mph - N/A   Clear
6:55 PM 46.4 °F 45.2 °F 41.0 °F 81% 29.75 in 10.0 mi SSE 3.5 mph - N/A   Clear
7:35 PM 46.4 °F 43.5 °F 41.0 °F 81% 29.75 in 10.0 mi South 5.8 mph - N/A   Clear
7:55 PM 46.4 °F 42.4 °F 41.0 °F 81% 29.74 in 10.0 mi SSE 8.1 mph - N/A   Clear
8:15 PM 48.2 °F - 41.0 °F 76% 29.74 in 10.0 mi South 5.8 mph - N/A   Clear
8:35 PM 48.2 °F - 41.0 °F 76% 29.73 in 10.0 mi South 5.8 mph - N/A   Clear
8:55 PM 46.4 °F 44.3 °F 41.0 °F 81% 29.73 in 10.0 mi SSE 4.6 mph - N/A   Clear
9:15 PM 46.4 °F 43.5 °F 41.0 °F 81% 29.72 in 10.0 mi SSE 5.8 mph - N/A   Clear
9:35 PM 46.4 °F 42.9 °F 41.0 °F 81% 29.72 in 10.0 mi SSE 6.9 mph - N/A   Clear
9:55 PM 44.6 °F 40.7 °F 41.0 °F 87% 29.71 in 10.0 mi SSE 6.9 mph - N/A   Clear
10:15 PM 46.4 °F 42.9 °F 41.0 °F 81% 29.71 in 10.0 mi South 6.9 mph - N/A   Clear
10:35 PM 44.6 °F 41.4 °F 41.0 °F 87% 29.71 in 10.0 mi South 5.8 mph - N/A   Clear
11:55 PM 46.4 °F 43.5 °F 41.0 °F 81% 29.71 in 10.0 mi South 5.8 mph - N/A   Clear